Miscellaneous Local Product
Issued by NWS North Platte, NE

Home | Current Version | Previous Version | Text Only | Print | Product List | Glossary On
Versions: 1 2 3 4 5 6 7 8 9 10 11 12 13 14 15 16 17 18 19 20 21 22 23 24 25 26 27 28 29 30 31 32 33 34 35 36 37 38 39 40 41 42 43 44 45 46 47 48 49 50
000
AXUS43 KLBF 310710
MISLBF


WESTERN AND NORTH CENTRAL NEBRASKA HOURLY WEATHER ROUNDUP
NATIONAL WEATHER SERVICE NORTH PLATTE NE
200 AM CDT MON AUG 31 2015

NOTE: "FAIR" INDICATES FEW OR NO CLOUDS BELOW 12,000 FEET WITH NO
SIGNIFICANT WEATHER AND/OR OBSTRUCTIONS TO VISIBILITY.

NOTE: STATIONS NOT REPORTING VARIABLES SUCH AS SKY/WEATHER OR
PRESSURE ARE PROVIDED BY THE NEBRASKA DEPARTMENT OF
ROADS...RAWS...AND APRS NETWORKS...AND ARE NOT UNDER
NATIONAL WEATHER SERVICE QUALITY CONTROL.

...OBSERVATIONS IN AND NEAR THE EASTERN PANHANDLE OF NEBRASKA...

CITY           SKY/WX    TMP DP  RH WIND       PRES   REMARKS
PINE RIDGE     PTCLDY    76  45  33 S9G18     29.81S
CHADRON        MOCLDY    69  49  48 CALM      29.81R
ALLIANCE       MOCLDY    71  50  47 S8        29.91R
SIDNEY         PTCLDY    64  48  56 S6        29.98R
CRESCENT LAKE    N/A     70  49  46 S7          N/A
BIG SPRINGS      N/A     68  46  45 CALM        N/A
$$

...OBSERVATIONS IN NORTH CENTRAL NEBRASKA...

CITY           SKY/WX    TMP DP  RH WIND       PRES   REMARKS
VALENTINE      CLEAR     71  57  61 S14       29.84S
THEDFORD       CLEAR     69  58  68 S13       29.93R
AINSWORTH      CLEAR     68  59  72 S17       29.87S
O`NEILL        CLEAR     67  65  93 S14G20    29.91R
ORD            CLEAR     66  63  90 S9        29.92S
BROKEN BOW     CLEAR     66  62  87 S10       29.94S
SPRINGVIEW       N/A     68  60  74 CALM        N/A
SARGENT          N/A     64  62  93 CALM        N/A
CHAMBERS         N/A     65  63  94 S9          N/A
EWING            N/A     66  61  84 S7          N/A
$$

...OBSERVATIONS IN SOUTHWEST NEBRASKA AND FAR NORTHEAST COLORADO...

CITY           SKY/WX    TMP DP  RH WIND       PRES   REMARKS
WRAY           FAIR      72  44  36 S18G24    29.94S
HOLYOKE        FAIR      64  45  48 S8        29.94F
IMPERIAL       CLEAR     70  45  40 S16       29.93S
OGALLALA       CLEAR     67  43  41 S6        29.93S
NORTH PLATTE   CLEAR     67  56  67 SE9       29.93S
MCCOOK         CLEAR     67  54  63 MISG      29.94S
LEXINGTON      CLEAR     67  64  88 S14       29.95R
PAXTON           N/A     66  49  54 S3          N/A
BRADY            N/A     64  59  83 CALM        N/A
CALLAWAY         N/A     63  62  95 S12         N/A
$$

...OBSERVATIONS IN CENTRAL LINCOLN COUNTY AREA...

CITY           SKY/WX    TMP DP  RH WIND       PRES   REMARKS
N.P. AIRPORT   CLEAR     67  56  67 SE9       29.93S
N.P. DOWNTOWN    N/A     68  57  68 S5G15       N/A
N.P. HILLCREST   N/A     67  58  72 SE9         N/A
$$

...SOME OBSERVATIONS FROM AROUND THE REGION...

CITY           SKY/WX    TMP DP  RH WIND       PRES   REMARKS
DENVER         MOCLDY    75  44  33 SW12      29.99F
LARAMIE        CLOUDY    63  44  50 SW13G21   30.17S
CHEYENNE       MOCLDY    69  45  41 W10       30.06F
SCOTTSBLUFF    MOCLDY    72  50  45 CALM      29.91F
RAPID CITY     PTCLDY    71  54  54 SW12      29.78S
PIERRE         PTCLDY    72  59  63 SE13      29.70S
WINNER         FAIR      75  56  51 S25G36    29.77S
SIOUX FALLS    PTCLDY    66  64  93 S13       29.90S
OMAHA          PTCLDY    66  65  96 SE6       29.96F
GRAND ISLAND   CLEAR     66  64  93 S13       29.96S
KANSAS CITY    PTCLDY    73  69  87 SE6       29.96F
WICHITA        CLEAR     71  68  90 SE6       29.95F
HAYS           CLEAR     64  55  72 SE5       29.97S
LIBERAL        CLEAR     64  50  59 SE6       29.99S
GOODLAND       CLEAR     64  49  57 S14       29.98F
$$



USA.gov is the U.S. government's official web portal to all federal, state and local government web resources and services.